Back to catalog

STARLINK-33627

AliveCommunicationsVLEO
NORAD 63068·PAYLOAD·🇺🇸 United States

Launched Feb 21, 2025 from Cape Canaveral Space Force Station

Loading…

Next Passes (next 24 hours)

TLE

FreshSource: CelesTrak SupGP

Epoch: Sep 14, 2026, 21:05 UTC

1 63068C 25035S   26257.87895833 -.00027897  00000+0 -10105-2 0  2571
2 63068  42.9990 158.7427 0001371 265.0461  54.5496 15.27589762    14

Track STARLINK-33627 in real time with AllMySat

Download on the App Store